Regional Weather Roundup
Issued by NWS

Home | Current Version | Previous Version | Text Only | Print | Product List | Glossary Off
Versions: 1 2 3 4 5 6 7 8 9 10 11 12 13 14 15 16 17 18 19 20 21 22 23 24 25 26 27 28 29 30 31 32 33 34 35 36 37 38 39 40 41 42 43 44 45 46 47 48 49 50

102
ASUS43 KOAX 171702
RWRNE

WEATHER ROUNDUP FOR NEBRASKA
NATIONAL WEATHER SERVICE OMAHA NE
1100 AM CST SUN DEC 17 2017

NOTES: SATELLITE DATA IS BEING USED TO AUGMENT CLOUD COVER ABOVE
       12000 FEET.
       "FAIR" INDICATES FEW OR NO CLOUDS BELOW 12,000 FEET WITH NO
       SIGNIFICANT WEATHER AND/OR OBSTRUCTIONS TO VISIBILITY.


NEZ001>004-019>022-054>056-171800-
NEBRASKA PANHANDLE

CITY           SKY/WX    TMP DP  RH WIND       PRES   REMARKS
SCOTTSBLUFF    CLOUDY    35  30  82 SW5       30.02S WCI  31
ALLIANCE       CLOUDY    31  30  96 SW8       30.01S WCI  23
CHADRON        CLOUDY    34  29  82 S5        30.00F WCI  30
GORDON         CLOUDY    32  31  96 SW5       30.00F WCI  28
KIMBALL        CLOUDY    32  31  96 SW6       30.01S WCI  27
SIDNEY         CLOUDY    33  30  88 W9        30.02F WCI  25
$$

NEZ057>060-069>072-079>082-171800-
SOUTHWEST NEBRASKA

CITY           SKY/WX    TMP DP  RH WIND       PRES   REMARKS
NORTH PLATTE   CLOUDY    36  32  85 CALM      30.06S
IMPERIAL       CLOUDY    35  33  92 N6        30.05F WCI  30
LEXINGTON      CLOUDY    37  32  82 N7        30.05F WCI  32
MCCOOK         CLOUDY    38  32  79 N7        30.05F WCI  33
OGALLALA       CLOUDY    36  34  92 W5        30.05S WCI  32
$$

NEZ005>010-023>029-035>040-094-171800-
NORTH CENTRAL NEBRASKA

CITY           SKY/WX    TMP DP  RH WIND       PRES   REMARKS
VALENTINE      CLOUDY    37  32  82 W5        30.05R WCI  33
AINSWORTH      CLOUDY    35  33  93 CALM      30.04S
BROKEN BOW     CLOUDY    36  31  82 N9        30.05R WCI  29
O`NEILL        CLOUDY    36  32  85 N5        30.06S WCI  32
ORD            CLOUDY    37  30  75 N7        30.05R WCI  32
THEDFORD       CLOUDY    36  31  83 N3        30.05R
$$

NEZ041-046>049-061>064-073>077-083>087-171800-
SOUTH CENTRAL NEBRASKA

CITY           SKY/WX    TMP DP  RH WIND       PRES   REMARKS
GRAND ISLAND   SUNNY     37  30  75 N13       30.05R WCI  29
AURORA         SUNNY     34  29  83 N10       30.03F WCI  26
HASTINGS       SUNNY     36  28  73 N14       30.04S WCI  27
HEBRON         CLOUDY    36  32  85 N7        30.04R WCI  30
HOLDREGE       MOSUNNY   36  32  85 N13       30.04F WCI  27
KEARNEY        MOSUNNY   37  30  75 N13       30.05R WCI  29
$$

NEZ011>018-030>034-042>045-171800-
NORTHEAST NEBRASKA

CITY           SKY/WX    TMP DP  RH WIND       PRES   REMARKS
NORFOLK        CLOUDY    33  28  81 N8        30.02F WCI  26
ALBION         CLOUDY    35  30  82 N6        30.05F WCI  30
BLAIR          CLOUDY    31  28  87 N10       30.03F FOG     WCI  22
COLUMBUS       MOSUNNY   35  29  78 N7        30.05F WCI  29
FREMONT        CLOUDY    29  26  87 N5        30.05F WCI  24
TEKAMAH        CLOUDY    30  25  81 N6        30.07F WCI  24
WAYNE          CLOUDY    31  29  92 CALM      30.05F
$$

NEZ050>053-065>068-078-088>093-171800-
SOUTHEAST NEBRASKA

CITY           SKY/WX    TMP DP  RH WIND       PRES   REMARKS
LINCOLN        CLOUDY    32  28  85 N5        30.05S FOG     WCI  27
OMAHA EPPLEY   LGT SNOW  31  26  82 N9        30.06R FOG     WCI  23
BEATRICE       CLOUDY    36  35  94 NE5       30.03S FOG     WCI  32
FALLS CITY     CLOUDY    40  38  93 NW9       30.01F WCI  34
NEBRASKA CITY  CLOUDY    33  33 100 N7        30.04S FOG     WCI  27
PLATTSMOUTH    CLOUDY    32  30  94 N5        30.04F FOG     WCI  27
$$

NEZ044-045-051>053-067-171800-
OMAHA AREA

CITY           SKY/WX    TMP DP  RH WIND       PRES   REMARKS
OMAHA EPPLEY   LGT SNOW  31  26  82 N9        30.06R FOG     WCI  23
BLAIR          CLOUDY    31  28  87 N10       30.03F FOG     WCI  22
FREMONT        CLOUDY    29  26  87 N5        30.05F WCI  24
MILLARD        MIX PCPN  33  29  85 NW7       30.04F WCI  27
OFFUTT AFB     LGT RAIN  31  27  86 N6        30.04F WCI  25
PLATTSMOUTH    CLOUDY    32  30  94 N5        30.04F FOG     WCI  27
WAHOO          PTSUNNY   32  26  79 N9        30.03F WCI  24
$$




USA.gov is the U.S. government's official web portal to all federal, state and local government web resources and services.